Location: Allentsteig
(48.6833°N, 15.3167°E)
Time: 00:30:47
(UTC+00:00)

Cosmos 2298 Rocket - Pass Details

Date: 22 January 2021
Orbit: 775 x 784 km, 74.0° (Epoch: 03 March)

Event Time Altitude Azimuth Distance (km) Brightness Sun altitude
Exits shadow 04:21:35 10° 347° (NNW) 2,346 6.3 -22.6°
Maximum altitude 04:26:42 45° 60° (ENE) 1,070 5.1 -21.7°
Drops below altitude 10° 04:31:47 10° 132° (SE) 2,339 7.3 -20.9°
Sets 04:34:16 0° 139° (SE) 3,263 8.0 -20.5°
